Location: Innerarity Island Observatory
(30.3139°N, 87.4867°W)
Time: 20:32:17
(UTC-05:00)

Amateur Radio Satellites - All Passes

Search period start: 25 August 2016 20:02
Search period end: 26 August 2016 20:02
Location: Innerarity Island Observatory, 30.3139°N, 87.4867°W

Satellite Date Start Highest point End Downlink Frequencies (MHz)
Time Altitude Azimuth
BEESAT 2 25 Aug 20:02:52 20:06:45 48° 60° (ENE) 20:10:37 435.950
AIST 1 25 Aug 20:03:29 20:05:52 14° 76° (ENE) 20:08:14
CANX-2 25 Aug 20:17:47 20:21:56 60° 260° (W) 20:26:06 2200.000
CUTE 1.7 + AOD 2 25 Aug 20:24:23 20:28:31 58° 260° (W) 20:32:39 437.475
BEESAT 3 25 Aug 20:25:59 20:29:37 35° 247° (WSW) 20:33:14 437.485
HO-68 25 Aug 20:27:27 20:34:35 66° 257° (WSW) 20:41:44 435.675
CINEMA 3 25 Aug 20:29:22 20:34:05 42° 262° (W) 20:38:50 145.822/145.860
AAUSAT CUBESAT 2 25 Aug 20:38:59 20:43:03 69° 77° (ENE) 20:47:08 437.432
COMPASS 1 25 Aug 20:44:41 20:48:47 74° 260° (W) 20:52:55 437.405
PCSat 25 Aug 20:45:41 20:47:55 12° 52° (NE) 20:50:09 145.827
Cosmos 2491 25 Aug 20:51:52 20:55:24 13° 292° (WNW) 20:58:58 435.465 / 435.565
Cosmos 2504 25 Aug 21:01:00 21:04:57 16° 277° (W) 21:08:54 435.465 / 435.565
Oscar 11 25 Aug 21:01:13 21:05:19 45° 75° (ENE) 21:09:24 145.826/435.025
CUBEBUG 2 25 Aug 21:02:48 21:07:30 65° 260° (W) 21:12:09 437.445
DELFI C3 25 Aug 21:03:51 21:06:19 16° 71° (ENE) 21:08:48 145.870
FUNcube-1 25 Aug 21:05:18 21:09:37 48° 75° (ENE) 21:13:52 145.935
UWE-3 25 Aug 21:05:22 21:10:00 87° 80° (E) 21:14:35 435.000/436.395/437.385
STRAND 1 25 Aug 21:14:17 21:17:51 20° 292° (WNW) 21:21:26 437.568
ZACube-1 25 Aug 21:25:15 21:29:47 88° 254° (WSW) 21:34:15 437.345
PRISM 25 Aug 21:30:27 21:34:38 77° 101° (E) 21:38:49 437.425
AIST 1 25 Aug 21:39:34 21:43:31 33° 269° (W) 21:47:26
SEEDS 25 Aug 21:40:57 21:41:03 10° 267° (W) 21:41:10 437.485
AIST 2 25 Aug 21:55:11 21:58:54 30° 58° (ENE) 22:02:36 435.215
ANTELSAT 25 Aug 22:16:22 22:19:28 19° 96° (E) 22:22:33 437.575/2403.000
PCSat 25 Aug 22:26:26 22:31:50 75° 248° (WSW) 22:37:13 145.827
HUMSAT D 25 Aug 22:31:26 22:35:38 77° 260° (W) 22:39:47 437.325/437.525
DELFI C3 25 Aug 22:37:40 22:40:55 25° 263° (W) 22:44:11 145.870
ESTCUBE 1 25 Aug 22:37:59 22:40:47 17° 69° (ENE) 22:43:36 437.505/2401.250
Oscar 11 25 Aug 22:40:36 22:41:35 11° 267° (W) 22:42:35 145.826/435.025
FUNcube-1 25 Aug 22:44:45 22:45:59 11° 266° (W) 22:47:13 145.935
TIGRISAT 25 Aug 22:47:08 22:51:14 45° 100° (E) 22:55:16 435.000
AISAT 25 Aug 22:55:52 22:58:16 14° 68° (ENE) 23:00:39 437.250
AUBIESAT-1 25 Aug 22:59:26 23:03:58 74° 73° (ENE) 23:08:37 437.475
M-CUBED/EXP-1 PRIME 25 Aug 23:03:06 23:07:40 81° 253° (WSW) 23:12:25 437.505
UNISAT 6 25 Aug 23:14:53 23:19:10 71° 283° (WNW) 23:23:23 437.425
UKube-1 25 Aug 23:17:40 23:19:11 12° 67° (ENE) 23:20:42 .
QB50P2 25 Aug 23:20:23 23:22:40 14° 95° (E) 23:24:55 145.880/145.840
DUCHIFAT 1 25 Aug 23:21:46 23:23:07 11° 94° (E) 23:24:28 145.980
POLYITAN 1 25 Aug 23:22:52 23:25:11 14° 95° (E) 23:27:29 437.675
CUSAT 1 25 Aug 23:28:54 23:31:16 30° 93° (E) 23:33:56 437.405
GONETS M04 25 Aug 23:31:08 23:39:55 63° 82° (E) 23:48:37
NANOSAT C BR1 25 Aug 23:33:03 23:35:58 18° 96° (E) 23:38:51 145.865
AIST 2 25 Aug 23:34:23 23:37:07 17° 251° (WSW) 23:39:49 435.215
RS-15 25 Aug 23:35:01 23:40:34 15° 98° (E) 23:46:12 29.354- 29.394
VELOX 1 25 Aug 23:41:21 23:45:35 48° 74° (ENE) 23:49:52 145.980
SO-50 25 Aug 23:43:46 23:48:34 65° 115° (ESE) 23:53:23 436.795
CUBEBUG 1 25 Aug 23:48:59 23:53:20 76° 76° (ENE) 23:57:44 437.445
O/OREOS (USA 219) 25 Aug 23:51:21 23:54:47 20° 64° (ENE) 23:58:11 437.305
ANTELSAT 25 Aug 23:52:38 23:56:06 24° 288° (WNW) 23:59:32 437.575/2403.000
50 SAT 26 Aug 00:03:35 00:07:09 80° 259° (W) 00:10:44 437.505
DX 1 26 Aug 00:05:53 00:10:11 64° 76° (ENE) 00:14:30 434.975-435.025
DANDE 26 Aug 00:05:55 00:07:58 20° 94° (E) 00:09:59 436.750
Cosmos 2499 26 Aug 00:08:58 00:16:02 86° 85° (E) 00:23:15 435.465 / 435.565
ESTCUBE 1 26 Aug 00:13:15 00:17:17 33° 262° (W) 00:21:20 437.505/2401.250
QB50P1 26 Aug 00:14:41 00:18:54 69° 101° (E) 00:23:03 145.935-145.965
SPROUT 26 Aug 00:16:43 00:20:56 60° 76° (ENE) 00:25:12 437.525
JAS-2 26 Aug 00:20:57 00:27:31 42° 99° (E) 00:34:38 435.910
BUGSAT 1 26 Aug 00:23:58 00:27:30 27° 97° (E) 00:30:59 437.445
POPSAT HIP 1 26 Aug 00:24:28 00:28:42 89° 295° (WNW) 00:32:53 437.405
TIGRISAT 26 Aug 00:26:18 00:27:27 11° 293° (WNW) 00:28:36 435.000
AISAT 26 Aug 00:30:12 00:34:20 38° 261° (W) 00:38:31 437.250
TISAT 1 26 Aug 00:44:26 00:47:49 23° 71° (ENE) 00:51:12 437.305
UKube-1 26 Aug 00:50:38 00:54:45 45° 260° (W) 00:58:55 .
QB50P2 26 Aug 00:54:43 00:58:29 33° 287° (WNW) 01:02:15 145.880/145.840
DUCHIFAT 1 26 Aug 00:55:00 00:58:55 40° 286° (WNW) 01:02:48 145.980
POLYITAN 1 26 Aug 00:57:15 01:01:01 32° 287° (WNW) 01:04:44 437.675
NANOSAT C BR1 26 Aug 01:08:08 01:11:37 26° 288° (WNW) 01:15:04 145.865
VELOX 1 26 Aug 01:21:10 01:22:14 11° 267° (W) 01:23:18 145.980
SO-50 26 Aug 01:27:11 01:29:26 13° 310° (NW) 01:31:40 436.795
GONETS M04 26 Aug 01:29:43 01:35:53 22° 277° (W) 01:42:04
O/OREOS (USA 219) 26 Aug 01:30:11 01:34:07 28° 258° (WSW) 01:38:01 437.305
Oscar 19 26 Aug 01:33:21 01:37:53 30° 98° (E) 01:42:22 437.125/150
RS-15 26 Aug 01:39:43 01:51:04 84° 114° (ESE) 02:03:07 29.354- 29.394
ITUPSAT 1 26 Aug 01:55:09 01:59:09 27° 71° (ENE) 02:03:08 437.325
PHONESAT 2.4 26 Aug 01:55:34 01:58:33 74° 149° (SSE) 02:01:32 2401.200-2431.200
BUGSAT 1 26 Aug 02:00:00 02:02:36 17° 290° (WNW) 02:05:12 437.445
JAS-2 26 Aug 02:06:21 02:12:16 31° 290° (WNW) 02:18:41 435.910
TISAT 1 26 Aug 02:20:07 02:23:19 21° 264° (W) 02:26:33 437.305
Gurwin Techsat 1B 26 Aug 02:26:56 02:32:02 46° 100° (E) 02:37:06 435.225
SWISSCUBE 26 Aug 02:28:29 02:33:14 77° 77° (ENE) 02:37:59 437.505
ITAMSAT 1 26 Aug 02:43:59 02:47:21 17° 95° (E) 02:50:41 435.822/435.867
BEESAT 26 Aug 02:45:51 02:50:36 76° 257° (WSW) 02:55:22 436.000
Oscar 19 26 Aug 03:12:49 03:16:59 25° 290° (WNW) 03:21:09 437.125/150
MOZHAYETS 4 26 Aug 03:17:47 03:21:38 27° 72° (ENE) 03:25:29
KKS-1 26 Aug 03:26:27 03:30:13 27° 71° (ENE) 03:33:59 437.445
PHONESAT 2.4 26 Aug 03:32:50 03:35:08 19° 344° (NNW) 03:37:24 2401.200-2431.200
ITUPSAT 1 26 Aug 03:33:09 03:36:52 23° 263° (W) 03:40:37 437.325
RS-15 26 Aug 03:55:52 04:05:01 26° 317° (NW) 04:14:34 29.354- 29.394
AO-7 26 Aug 04:06:18 04:14:21 52° 103° (ESE) 04:22:20 29.400- 29.500
STARS 26 Aug 04:07:22 04:11:26 37° 73° (ENE) 04:15:32 437.465
Gurwin Techsat 1B 26 Aug 04:08:13 04:11:32 17° 293° (WNW) 04:14:53 435.225
ITAMSAT 1 26 Aug 04:22:03 04:26:53 41° 288° (WNW) 04:31:44 435.822/435.867
CUBESAT XI-V 26 Aug 04:32:59 04:36:24 21° 70° (ENE) 04:39:49 437.345
HORYU 2 26 Aug 04:46:57 04:48:53 13° 94° (E) 04:50:48 437.375
MOZHAYETS 4 26 Aug 04:55:20 04:58:42 20° 264° (W) 05:02:06
KKS-1 26 Aug 05:03:23 05:06:41 20° 264° (W) 05:10:00 437.445
Cosmos 2491 26 Aug 05:06:49 05:14:46 36° 77° (ENE) 05:22:40 435.465 / 435.565
PHONESAT 2.4 26 Aug 05:11:00 05:12:12 12° 0° (N) 05:13:25 2401.200-2431.200
AO-85 26 Aug 05:21:36 05:26:54 61° 114° (ESE) 05:32:01 145.980
STARS 26 Aug 05:45:31 05:47:51 14° 265° (W) 05:50:13 437.465
GOMX 1 26 Aug 05:46:23 05:47:23 10° 90° (E) 05:48:22 467.674
BRITE-PL 26 Aug 05:56:59 06:02:17 39° 97° (E) 06:07:25 437.365/2234.400
AO-7 26 Aug 05:59:52 06:06:38 29° 297° (WNW) 06:13:24 29.400- 29.500
LilacSat-2 26 Aug 06:06:50 06:08:47 14° 95° (E) 06:10:42 437.200
CUBESAT XI-V 26 Aug 06:09:39 06:13:33 27° 263° (W) 06:17:29 437.345
YUBILEINY 26 Aug 06:13:35 06:22:03 53° 90° (E) 06:30:31 435.215
HORYU 2 26 Aug 06:21:25 06:25:32 40° 287° (WNW) 06:29:40 437.375
Cubesat XI-IV 26 Aug 06:36:03 06:40:58 38° 99° (E) 06:45:52 437.490
STRAND 1 26 Aug 06:44:47 06:49:10 30° 71° (ENE) 06:53:34 437.568
PHONESAT 2.4 26 Aug 06:47:00 06:49:17 20° 17° (NNE) 06:51:35 2401.200-2431.200
CUTE-I 26 Aug 06:48:19 06:53:30 52° 101° (E) 06:58:38 437.470
NOAA 15 26 Aug 06:55:31 07:00:52 82° 104° (ESE) 07:06:10 137.62
Cosmos 2491 26 Aug 07:03:30 07:11:27 40° 272° (W) 07:19:26 435.465 / 435.565
AO-85 26 Aug 07:04:32 07:07:40 16° 308° (NW) 07:10:44 145.980
NOAA 18 26 Aug 07:12:51 07:18:20 80° 103° (ESE) 07:23:47 137.9125
GOMX 1 26 Aug 07:20:32 07:25:54 68° 284° (WNW) 07:30:57 467.674
ISS 26 Aug 07:34:25 07:35:29 11° 125° (SE) 07:36:34 145.825
Cosmos 2504 26 Aug 07:35:02 07:43:34 66° 93° (E) 07:51:36 435.465 / 435.565
BRITE-PL 26 Aug 07:36:02 07:40:23 23° 291° (WNW) 07:44:40 437.365/2234.400
DOVE 4 26 Aug 07:36:24 07:41:26 77° 102° (ESE) 07:46:08 437.250
LilacSat-2 26 Aug 07:39:52 07:43:03 26° 287° (WNW) 07:46:13 437.200
SEEDS 26 Aug 07:52:53 07:54:20 11° 94° (E) 07:55:46 437.485
HO-68 26 Aug 08:01:57 08:08:20 34° 99° (E) 08:14:39 435.675
CANX-2 26 Aug 08:08:35 08:12:27 34° 98° (E) 08:16:18 2200.000
YUBILEINY 26 Aug 08:11:57 08:19:03 27° 286° (WNW) 08:26:14 435.215
PRISM 26 Aug 08:14:47 08:18:04 24° 71° (ENE) 08:21:22 437.425
CUTE 1.7 + AOD 2 26 Aug 08:15:02 08:18:55 34° 98° (E) 08:22:47 437.475
Cubesat XI-IV 26 Aug 08:16:52 08:20:43 21° 292° (WNW) 08:24:34 437.490
SO-50 26 Aug 08:22:46 08:24:51 13° 50° (NE) 08:26:55 436.795
PHONESAT 2.4 26 Aug 08:22:52 08:25:51 71° 210° (SSW) 08:28:49 2401.200-2431.200
STRAND 1 26 Aug 08:24:13 08:28:16 24° 263° (W) 08:32:19 437.568
AAUSAT CUBESAT 2 26 Aug 08:27:59 08:30:40 17° 95° (E) 08:33:21 437.432
AIST 1 26 Aug 08:28:36 08:29:23 10° 86° (E) 08:30:10
CUTE-I 26 Aug 08:30:03 08:33:02 15° 294° (WNW) 08:36:01 437.470
CINEMA 3 26 Aug 08:30:09 08:34:38 77° 100° (E) 08:38:55 145.822/145.860
COMPASS 1 26 Aug 08:33:33 08:37:04 26° 97° (E) 08:40:34 437.405
RS-15 26 Aug 08:38:35 08:45:23 16° 32° (NNE) 08:52:07 29.354- 29.394
Oscar 11 26 Aug 08:55:47 08:57:48 13° 94° (E) 08:59:48 145.826/435.025
NOAA 18 26 Aug 08:57:33 08:58:14 10° 297° (WNW) 08:58:55 137.9125
CUBEBUG 2 26 Aug 08:59:55 09:03:51 38° 98° (E) 09:07:43 437.445
FUNcube-1 26 Aug 09:00:52 09:02:47 13° 94° (E) 09:04:42 145.935
UWE-3 26 Aug 09:01:34 09:05:01 25° 97° (E) 09:08:25 435.000/436.395/437.385
ISS 26 Aug 09:08:30 09:11:37 41° 317° (NW) 09:14:45 145.825
ANTELSAT 26 Aug 09:12:35 09:12:49 10° 67° (ENE) 09:13:02 437.575/2403.000
ZACube-1 26 Aug 09:20:00 09:23:28 25° 97° (E) 09:26:54 437.345
SEEDS 26 Aug 09:26:11 09:30:07 40° 285° (WNW) 09:34:04 437.485
Cosmos 2504 26 Aug 09:31:22 09:37:17 20° 286° (WNW) 09:43:01 435.465 / 435.565
TIGRISAT 26 Aug 09:40:29 09:44:00 22° 71° (ENE) 09:47:30 435.000
CANX-2 26 Aug 09:45:38 09:47:57 15° 290° (WNW) 09:50:17 2200.000
BEESAT 2 26 Aug 09:49:23 09:52:57 34° 112° (ESE) 09:56:33 435.950
HO-68 26 Aug 09:49:32 09:55:54 36° 292° (WNW) 10:02:16 435.675
PRISM 26 Aug 09:50:24 09:53:16 18° 264° (W) 09:56:09 437.425
CUTE 1.7 + AOD 2 26 Aug 09:52:09 09:54:24 14° 291° (WNW) 09:56:39 437.475
SO-50 26 Aug 10:01:13 10:05:39 55° 246° (WSW) 10:09:58 436.795
AIST 1 26 Aug 10:02:22 10:06:28 43° 279° (W) 10:10:38
AAUSAT CUBESAT 2 26 Aug 10:02:33 10:06:05 28° 287° (WNW) 10:09:39 437.432
CUSAT 1 26 Aug 10:03:54 10:09:48 32° 78° (ENE) 10:16:32 437.405
UNISAT 6 26 Aug 10:07:28 10:11:57 48° 75° (ENE) 10:16:21 437.425
COMPASS 1 26 Aug 10:09:31 10:12:23 18° 289° (WNW) 10:15:15 437.405
BEESAT 3 26 Aug 10:10:40 10:14:27 52° 299° (WNW) 10:18:18 437.485
DELFI C3 26 Aug 10:19:56 10:23:53 59° 100° (E) 10:27:50 145.870
HUMSAT D 26 Aug 10:21:00 10:24:22 24° 97° (E) 10:27:43 437.325/437.525
JUGNU 26 Aug 10:22:54 10:26:33 17° 164° (SSE) 10:30:11 437.505
Oscar 11 26 Aug 10:30:01 10:34:00 37° 286° (WNW) 10:37:59 145.826/435.025
GONETS M04 26 Aug 10:35:04 10:37:43 12° 79° (E) 10:40:22
FUNcube-1 26 Aug 10:35:22 10:39:06 33° 286° (WNW) 10:42:48 145.935
CUBEBUG 2 26 Aug 10:38:23 10:40:03 12° 292° (WNW) 10:41:43 437.445
UWE-3 26 Aug 10:38:25 10:41:15 18° 290° (WNW) 10:44:06 435.000/436.395/437.385
ANTELSAT 26 Aug 10:44:22 10:48:58 60° 259° (W) 10:53:31 437.575/2403.000
DANDE 26 Aug 10:45:01 10:49:45 25° 80° (E) 10:55:25 436.750
RS-15 26 Aug 10:49:04 11:01:16 59° 58° (ENE) 11:13:05 29.354- 29.394
M-CUBED/EXP-1 PRIME 26 Aug 10:51:28 10:52:24 11° 96° (E) 10:53:20 437.505
Cosmos 2499 26 Aug 10:52:11 10:53:39 11° 81° (E) 10:55:06 435.465 / 435.565
ZACube-1 26 Aug 10:56:44 10:59:32 18° 290° (WNW) 11:02:19 437.345
QB50P1 26 Aug 11:01:52 11:05:19 24° 72° (ENE) 11:08:46 145.935-145.965
POPSAT HIP 1 26 Aug 11:11:21 11:15:07 31° 73° (ENE) 11:18:53 437.405
TIGRISAT 26 Aug 11:16:33 11:20:29 27° 263° (W) 11:24:23 435.000
PCSat 26 Aug 11:19:34 11:24:20 32° 108° (ESE) 11:29:06 145.827
BEESAT 2 26 Aug 11:28:37 11:30:51 15° 306° (NW) 11:33:06 435.950
VELOX 1 26 Aug 11:38:36 11:41:03 15° 95° (E) 11:43:31 145.980
50 SAT 26 Aug 11:39:07 11:40:39 12° 95° (E) 11:42:10 437.505
DUCHIFAT 1 26 Aug 11:40:29 11:44:41 65° 77° (ENE) 11:48:55 145.980
QB50P2 26 Aug 11:40:45 11:45:02 83° 78° (ENE) 11:49:20 145.880/145.840
POLYITAN 1 26 Aug 11:43:16 11:47:34 84° 78° (ENE) 11:51:52 437.675
CUBEBUG 1 26 Aug 11:44:02 11:47:27 22° 96° (E) 11:50:51 437.445
CUSAT 1 26 Aug 11:45:27 11:51:42 41° 267° (W) 11:58:53 437.405
UNISAT 6 26 Aug 11:47:09 11:48:47 12° 266° (W) 11:50:26 437.425
AIST 2 26 Aug 11:47:31 11:50:51 24° 111° (ESE) 11:54:12 435.215
NANOSAT C BR1 26 Aug 11:53:27 11:57:42 78° 258° (WSW) 12:01:59 145.865
HUMSAT D 26 Aug 11:56:59 11:59:46 18° 289° (WNW) 12:02:34 437.325/437.525
SRMSAT 26 Aug 11:58:25 12:00:21 12° 161° (SSE) 12:02:16 437.500
DX 1 26 Aug 12:00:52 12:03:48 17° 96° (E) 12:06:42 434.975-435.025
SPROUT 26 Aug 12:09:38 12:12:16 16° 95° (E) 12:14:53 437.525
JUGNU 26 Aug 12:10:07 12:15:02 27° 173° (S) 12:19:56 437.505
ESTCUBE 1 26 Aug 12:10:47 12:15:20 79° 103° (ESE) 12:19:52 437.505/2401.250
JAS-2 26 Aug 12:12:59 12:18:05 67° 75° (ENE) 12:23:22 435.910
AUBIESAT-1 26 Aug 12:18:56 12:22:49 54° 289° (WNW) 12:26:25 437.475
M-CUBED/EXP-1 PRIME 26 Aug 12:23:24 12:27:09 37° 291° (WNW) 12:30:37 437.505
GONETS M04 26 Aug 12:24:24 12:33:07 86° 96° (E) 12:41:57
AISAT 26 Aug 12:25:42 12:30:07 61° 101° (E) 12:34:29 437.250
DANDE 26 Aug 12:26:55 12:32:20 41° 265° (W) 12:39:08 436.750
Cosmos 2499 26 Aug 12:37:18 12:45:44 84° 94° (E) 12:53:34 435.465 / 435.565
QB50P1 26 Aug 12:37:47 12:40:58 20° 264° (W) 12:44:11 145.935-145.965
BUGSAT 1 26 Aug 12:42:13 12:46:20 52° 260° (W) 12:50:30 437.445
UKube-1 26 Aug 12:43:15 12:47:24 44° 100° (E) 12:51:31 .
Oscar 19 26 Aug 12:44:55 12:49:02 25° 69° (ENE) 12:53:09 437.125/150
POPSAT HIP 1 26 Aug 12:48:16 12:50:53 16° 265° (W) 12:53:31 437.405
RS-15 26 Aug 13:02:32 13:13:03 35° 255° (WSW) 13:23:20 29.354- 29.394
PCSat 26 Aug 13:03:11 13:07:40 26° 302° (WNW) 13:12:10 145.827
50 SAT 26 Aug 13:11:05 13:14:12 27° 286° (WNW) 13:17:20 437.505
VELOX 1 26 Aug 13:13:30 13:17:35 36° 287° (WNW) 13:21:38 145.980
CUBEBUG 1 26 Aug 13:20:02 13:23:36 24° 289° (WNW) 13:27:09 437.445
AIST 2 26 Aug 13:26:06 13:29:13 21° 304° (NW) 13:32:23 435.215
DX 1 26 Aug 13:36:08 13:39:56 30° 288° (WNW) 13:43:43 434.975-435.025
Gurwin Techsat 1B 26 Aug 13:42:21 13:47:19 42° 73° (ENE) 13:52:17 435.225
SRMSAT 26 Aug 13:44:23 13:48:55 23° 169° (S) 13:53:29 437.500
SPROUT 26 Aug 13:44:28 13:48:12 30° 287° (WNW) 13:51:55 437.525
O/OREOS (USA 219) 26 Aug 13:56:50 14:01:16 66° 106° (ESE) 14:05:43 437.305
ITAMSAT 1 26 Aug 13:57:06 14:00:05 16° 67° (ENE) 14:03:04 435.822/435.867
JUGNU 26 Aug 13:58:32 14:03:35 29° 183° (S) 14:08:36 437.505
ITUPSAT 1 26 Aug 14:03:43 14:04:47 11° 93° (E) 14:05:51 437.325
TISAT 1 26 Aug 14:08:29 14:12:42 88° 283° (WNW) 14:16:52 437.305
UKube-1 26 Aug 14:21:21 14:22:59 12° 293° (WNW) 14:24:39 .
Oscar 19 26 Aug 14:23:41 14:28:09 30° 263° (W) 14:32:38 437.125/150
GONETS M04 26 Aug 14:26:23 14:30:54 15° 291° (WNW) 14:35:26
SWISSCUBE 26 Aug 14:34:46 14:38:58 31° 98° (E) 14:43:10 437.505
Cosmos 2499 26 Aug 14:35:29 14:39:25 14° 288° (WNW) 14:43:16 435.465 / 435.565
BEESAT 26 Aug 14:51:48 14:56:20 43° 100° (E) 15:00:50 436.000
AO-7 26 Aug 14:58:58 15:06:42 44° 66° (ENE) 15:14:27 29.400- 29.500
Gurwin Techsat 1B 26 Aug 15:23:49 15:27:21 18° 265° (W) 15:30:53 435.225
SRMSAT 26 Aug 15:32:32 15:37:36 30° 179° (S) 15:42:40 437.500
ITAMSAT 1 26 Aug 15:34:05 15:39:05 49° 260° (W) 15:44:06 435.822/435.867
ITUPSAT 1 26 Aug 15:38:11 15:42:50 55° 286° (WNW) 15:47:30 437.325
AO-85 26 Aug 15:39:55 15:43:57 59° 245° (WSW) 15:47:45 145.980
ISS 26 Aug 15:41:40 15:43:27 14° 35° (NE) 15:45:14 145.825
JUGNU 26 Aug 15:47:47 15:52:05 21° 193° (SSW) 15:56:20 437.505
STARS 26 Aug 16:05:14 16:06:03 10° 93° (E) 16:06:52 437.465
SWISSCUBE 26 Aug 16:13:02 16:16:30 20° 291° (WNW) 16:19:58 437.505
BEESAT 26 Aug 16:31:04 16:33:42 15° 292° (WNW) 16:36:19 436.000
YUBILEINY 26 Aug 16:32:48 16:38:28 18° 71° (ENE) 16:44:05 435.215
AO-7 26 Aug 16:52:04 16:59:25 34° 260° (W) 17:06:48 29.400- 29.500
MOZHAYETS 4 26 Aug 16:54:39 16:59:08 55° 285° (WNW) 17:03:36
KKS-1 26 Aug 16:58:41 17:03:06 66° 285° (WNW) 17:07:29 437.445
BRITE-PL 26 Aug 17:02:48 17:06:20 21° 69° (ENE) 17:10:05 437.365/2234.400
HORYU 2 26 Aug 17:13:04 17:17:32 86° 82° (E) 17:22:02 437.375
ISS 26 Aug 17:16:56 17:20:05 44° 229° (SW) 17:23:12 145.825
SRMSAT 26 Aug 17:21:32 17:26:17 25° 189° (S) 17:31:04 437.500
Cosmos 2504 26 Aug 17:38:16 17:41:09 13° 70° (ENE) 17:44:01 435.465 / 435.565
STARS 26 Aug 17:38:22 17:42:35 48° 286° (WNW) 17:46:47 437.465
Cubesat XI-IV 26 Aug 17:52:27 17:57:17 36° 71° (ENE) 18:02:08 437.490
Cosmos 2491 26 Aug 18:00:20 18:08:35 50° 90° (E) 18:16:53 435.465 / 435.565
CUTE-I 26 Aug 18:04:25 18:09:32 48° 73° (ENE) 18:14:39 437.470
NOAA 15 26 Aug 18:09:47 18:15:00 74° 75° (ENE) 18:20:15 137.62
CUBESAT XI-V 26 Aug 18:10:59 18:15:40 72° 284° (WNW) 18:20:21 437.345
LilacSat-2 26 Aug 18:15:19 18:19:07 59° 76° (ENE) 18:22:54 437.200
GOMX 1 26 Aug 18:21:57 18:26:49 69° 76° (ENE) 18:32:02 467.674
YUBILEINY 26 Aug 18:27:13 18:35:56 73° 267° (W) 18:44:34 435.215
HO-68 26 Aug 18:27:31 18:30:55 14° 60° (ENE) 18:34:18 435.675
NOAA 18 26 Aug 18:33:16 18:38:49 87° 72° (ENE) 18:44:22 137.9125
BEESAT 3 26 Aug 18:34:17 18:36:32 15° 54° (NE) 18:38:46 437.485
DOVE 4 26 Aug 18:35:12 18:39:55 41° 73° (ENE) 18:44:50 437.250
BRITE-PL 26 Aug 18:40:30 18:44:33 30° 264° (W) 18:48:54 437.365/2234.400
CANX-2 26 Aug 18:57:50 18:59:28 12° 69° (ENE) 19:01:06 2200.000
STRAND 1 26 Aug 19:01:54 19:05:01 16° 95° (E) 19:08:07 437.568
CUTE 1.7 + AOD 2 26 Aug 19:04:05 19:05:49 12° 69° (ENE) 19:07:33 437.475
SRMSAT 26 Aug 19:11:52 19:14:54 14° 197° (SSW) 19:17:56 437.500
CINEMA 3 26 Aug 19:25:11 19:29:46 37° 73° (ENE) 19:34:22 145.822/145.860
Cosmos 2504 26 Aug 19:28:02 19:35:13 78° 266° (W) 19:42:24 435.465 / 435.565
Cubesat XI-IV 26 Aug 19:33:21 19:37:21 21° 264° (W) 19:41:22 437.490
CUTE-I 26 Aug 19:46:38 19:49:44 16° 265° (W) 19:52:50 437.470
BEESAT 2 26 Aug 19:49:48 19:53:44 54° 61° (ENE) 19:57:38 435.950
CUBEBUG 2 26 Aug 19:52:44 19:56:01 19° 71° (ENE) 19:59:16 437.445
UWE-3 26 Aug 19:54:33 19:56:21 12° 68° (ENE) 19:58:07 435.000/436.395/437.385
